Location: Dammard
(49.1452°N, 3.1976°E)
Time: 16:47:34
(UTC+00:00)

Daily predictions for brighter satellites

Satellite Brightness Start Highest point End
(mag) Time Altitude Azimuth Time Altitude Azimuth Time Altitude Azimuth
Cosmos 614 Rocket 4.2 17:09:17 10° SSW 17:14:30 78° WNW 17:19:44 10° NNE
DMSP B5D2-2 4.4 17:11:58 10° NNE 17:17:03 45° E 17:22:05 10° S
AQUARIUS 4.3 17:13:54 10° SSE 17:18:23 87° WSW 17:22:54 10° NNW
Cosmos 1607 4.2 17:12:54 10° SSW 17:18:47 51° ESE 17:24:44 10° NE
Meteor PRIRODA 3.5 17:15:58 10° SSE 17:19:29 72° ENE 17:23:02 10° N
Cosmos 1025 Rocket 3.3 17:16:43 10° SSW 17:20:58 72° W 17:25:16 10° N
YAOGAN 1 3.8 17:20:12 10° ESE 17:23:26 21° ENE 17:26:41 10° NNE
SL-4 R/B 1.6 17:21:13 10° WSW 17:24:40 83° SSE 17:28:15 10° ENE
Cosmos 2322 Rocket 3.7 17:22:05 10° SE 17:25:13 15° E 17:28:21 10° ENE
COBE Rocket 4.1 17:21:39 10° S 17:26:26 76° WSW 17:31:07 10° NNW
Cosmos 2227 Rocket 4.5 17:22:18 10° NW 17:27:10 30° WSW 17:32:00 10° SSW
Landsat 4 4.5 17:24:23 10° S 17:27:56 55° WSW 17:31:33 10° NNW
Cosmos 1975 Rocket 3.6 17:24:41 10° SSW 17:29:07 65° WNW 17:33:33 10° N
Cosmos 1892 4.0 17:28:32 10° SE 17:31:11 19° E 17:33:50 10° NE
ATLAS CENTAUR R/B 1.8 17:26:46 10° SSW 17:31:24 58° SE 17:35:53 10° NE
NOSS 2-1 (E) 4.0 17:28:10 10° NW 17:32:28 87° SW 17:38:29 10° SE
Cosmos 1703 3.2 17:28:46 10° S 17:32:35 90° W 17:36:26 10° N
Cosmos 1536 Rocket 3.9 17:29:00 10° SSE 17:33:02 41° E 17:37:07 10° NNE
Cosmos 407 Rocket 3.8 17:28:36 10° S 17:33:27 43° ESE 17:38:18 10° NE
Cosmos 1340 Rocket 3.1 17:31:30 10° SSE 17:35:10 42° E 17:38:53 10° NNE
SL-16 R/B 3.1 17:32:34 10° SSE 17:37:15 27° ESE 17:41:56 10° NE
Cosmos 1606 Rocket 4.3 17:41:10 10° N 17:45:01 30° ENE 17:48:51 10° SE
Lacrosse 5 3.4 17:43:49 10° S 17:47:26 20° SE 17:49:51 15° E
Cosmos 2369 3.9 17:43:19 10° SSW 17:48:58 76° WNW 17:54:41 10° NNE
BlueWalker 3 2.0 17:45:54 10° WSW 17:49:46 73° NNW 17:52:39 17° ENE
Cosmos 1140 Rocket 3.4 17:45:22 10° SSW 17:50:31 70° ESE 17:55:41 10° NNE
Cosmos 1655 Rocket 4.0 17:45:11 10° N 17:51:30 85° E 17:57:44 10° S
Cosmos 1825 3.4 17:49:06 10° SE 17:51:49 19° E 17:52:39 18° ENE
NOAA 6 4.5 17:47:19 10° S 17:52:26 67° WSW 17:57:36 10° NNW
Cosmos 1408 2.6 17:49:12 10° SSE 17:52:27 46° E 17:55:46 10° NNE
Cosmos 1980 Rocket 2.5 17:47:23 10° SW 17:53:01 71° WNW 17:58:45 10° NNE
Radarsat Rocket 4.4 17:48:04 10° SSE 17:54:02 75° WSW 18:00:41 10° NNW
ATLAS 5 CENTAUR R/B 3.4 17:52:43 10° WNW 17:55:37 19° NNW 17:58:53 10° NNE
COSMO-SKYMED 1 2.5 17:51:30 10° NNE 17:55:50 66° ESE 18:00:09 10° S
SL-08 R/B 3.8 17:52:59 10° N 17:57:53 65° WNW 18:02:47 10° SSW
USA 281 4.5 17:52:50 10° NNE 17:58:45 38° NW 18:04:40 10° WSW
Cosmos 1023 Rocket 4.4 17:53:42 10° SSW 17:58:52 85° ESE 18:04:01 10° NNE
Cosmos 2228 2.8 17:55:11 10° N 17:59:25 71° E 18:03:37 10° SSE
Cosmos 1697 Rocket 4.0 17:54:44 10° WSW 17:59:57 37° NW 18:05:12 10° NNE
MOS 1-B 4.4 18:01:30 10° SE 18:07:07 55° ENE 18:12:48 10° N
Cosmos 2263 Rocket 3.2 18:02:12 10° NW 18:07:33 49° WSW 18:12:52 10° S
CZ-4 R/B 2.0 18:07:18 10° SE 18:11:04 35° ENE 18:14:48 10° N
PSLV R/B 3.5 18:12:48 10° SSE 18:16:26 68° ENE 18:20:07 10° N
Cosmos 1328 3.8 18:13:26 10° SSW 18:17:26 81° WNW 18:21:25 10° N
Okean O Rocket 2.0 18:14:12 10° SE 18:18:17 40° ENE 18:22:26 10° N
Cosmos 1726 Rocket 3.6 18:14:20 10° N 18:18:32 49° ENE 18:22:42 10° SSE
Meteor 1-11 4.3 18:13:09 10° S 18:18:48 56° E 18:24:28 10° NNE
Lacrosse 5 rocket 1.9 18:17:57 10° NW 18:21:14 33° NNE 18:21:53 31° NE
Cosmos 724 4.3 18:15:26 10° SSW 18:21:23 86° ESE 18:26:26 16° NE
Cosmos 1184 Rocket 4.4 18:19:39 10° NW 18:21:44 26° W 18:23:47 10° SSW
Cosmos 468 Rocket 4.0 18:16:43 10° NNW 18:21:52 59° ENE 18:26:55 10° SE
ISS -3.1 18:18:40 10° WNW 18:21:58 52° SSW 18:23:39 25° SE
RESURS DK-1 2.9 18:21:46 10° NNW 18:25:35 35° NE 18:25:55 34° ENE
Cosmos 1954 Rocket 4.0 18:24:10 10° S 18:29:18 57° ESE 18:32:56 19° NE
Cosmos 1553 Rocket 4.1 18:26:12 10° SSE 18:31:58 47° E 18:37:49 10° NNE
CZ-4C R/B 3.9 18:30:00 10° N 18:33:52 57° WNW 18:37:32 10° SSW
IRIDIUM 104 4.3 18:29:27 10° N 18:34:36 55° E 18:39:42 10° SSE
COSMOS 2455 3.8 18:29:26 10° WSW 18:35:11 45° NW 18:40:47 11° NNE
CZ-4B R/B 3.0 18:31:49 10° SSE 18:37:09 84° ENE 18:42:37 10° NNW
SL-08 R/B 4.4 18:32:09 10° N 18:38:20 63° ENE 18:44:34 10° SSE
USA 290 4.4 18:36:07 10° WSW 18:38:53 25° WNW 18:41:24 11° N
Cosmos 1844 Rocket 2.5 18:33:54 10° NNW 18:39:30 73° ENE 18:43:47 17° SE
IRIDIUM 114 4.2 18:38:32 10° N 18:43:45 65° E 18:48:56 10° SSE
Cosmos 1763 Rocket 3.5 18:39:03 10° NNW 18:44:16 78° WSW 18:49:23 10° SSE
Cosmos 1844 3.6 18:40:00 10° NNW 18:45:50 71° ENE 18:49:24 24° SE
Feng Yun 1-1 Rocket 4.1 18:40:24 10° SSE 18:45:57 68° ENE 18:51:24 10° N
Spot 1 4.3 18:47:34 44° SE 18:47:34 44° SE 18:50:45 10° S
Cosmos 2058 Rocket 3.0 18:43:38 10° N 18:47:58 57° ENE 18:48:17 55° E
Cosmos 2278 4.4 18:44:45 10° SW 18:50:18 54° NW 18:55:38 11° NNE
IRIDIUM 103 4.2 18:47:41 10° N 18:52:56 78° E 18:58:09 10° S
MINOTAUR 4 R/B 3.9 18:53:04 79° NW 18:53:07 80° WNW 18:56:32 10° SSW
Cosmos 841 Rocket 3.6 18:48:47 10° NNW 18:53:59 54° ENE 18:54:41 50° E
ATLAS 2AS CENTAUR R/B 2.9 18:48:35 10° NW 18:55:35 70° SW 19:01:41 12° SSE
Cosmos 2333 Rocket 3.2 18:51:10 10° S 18:54:33 29° SE 18:54:33 29° SE
Cosmos 2360 Rocket 2.2 18:52:53 10° S 18:58:21 54° ESE 18:59:03 50° E
YAOGAN 1 3.4 18:55:01 10° S 18:59:11 49° W 19:03:24 10° NNW
Cosmos 2219 Rocket 4.3 18:56:01 10° SSE 18:56:22 12° SSE 18:56:22 12° SSE
Cosmos 2278 Rocket 3.7 18:58:14 10° N 19:01:28 21° NNE 19:01:28 21° NNE
SL-4 R/B 2.4 19:00:36 10° W 19:03:34 50° NW 19:03:34 50° NW
S3M 4.1 18:59:18 10° SSE 19:05:27 52° E 19:11:38 10° NNE
Cosmos 1892 4.2 19:02:52 10° SW 19:06:19 36° WNW 19:09:49 10° N
Cosmos 540 Rocket 3.5 19:02:03 10° NNW 19:07:14 77° WSW 19:10:11 26° SSE
Cosmos 2322 Rocket 2.1 19:02:47 10° SSW 19:08:24 88° ESE 19:10:37 39° NNE
ATLAS CENTAUR R/B 3.2 19:06:07 10° W 19:10:14 30° NW 19:12:01 23° N
Cosmos 676 Rocket 4.1 19:05:48 10° SSW 19:11:06 77° WNW 19:13:41 31° NNE
IRIDIUM 106 4.4 19:06:00 10° N 19:11:14 76° W 19:16:26 10° S
Cosmos 1461 3.9 19:12:25 10° SSW 19:15:09 38° SSW 19:15:09 38° SSW
SL-16 R/B 2.7 19:15:25 10° SW 19:21:00 57° WNW 19:24:12 25° NNE
Cosmos 1825 3.7 19:23:22 10° SW 19:26:45 33° WNW 19:27:13 32° WNW
Gblst 52 Del rocket 4.0 19:22:59 10° WSW 19:28:33 90° SSW 19:28:33 90° SSW
BlueWalker 3 3.6 19:25:00 10° WNW 19:27:27 32° NW 19:27:27 32° NW
Lacrosse 5 2.0 19:24:40 10° SW 19:29:05 66° SW 19:29:05 66° SW
CSL-04 Debris 4.1 19:29:17 65° S 19:30:07 84° WSW 19:35:34 10° NNW
Cosmos 1980 Rocket 4.5 19:34:12 10° W 19:38:06 18° NW 19:42:01 10° N
CSL-04 Rocket 3.7 19:39:31 75° WNW 19:39:31 75° WNW 19:44:37 10° NNW
ATLAS 5 CENTAUR R/B 4.1 19:39:22 10° NNW 19:40:52 14° N 19:40:52 14° N
CZ-4 R/B 3.6 19:42:34 10° SSW 19:46:01 25° W 19:49:26 10° NW
BREEZE-M DEB (TANK) 3.7 19:35:48 10° WSW 19:45:22 55° SSW 19:45:22 55° SSW
Cosmos 1745 Rocket 4.3 19:45:08 10° NNW 19:51:19 62° W 19:55:06 24° SSW
Okean O Rocket 3.7 19:51:09 10° SSW 19:54:45 25° W 19:58:24 10° NW
Cosmos 1943 Rocket 4.3 19:52:31 10° N 19:53:56 15° N 19:53:56 15° N
BREEZE-M DEB (TANK) 4.0 19:53:09 10° W 19:57:27 58° S 19:57:31 58° S
Lacrosse 5 rocket 4.1 19:56:43 10° WNW 19:57:18 14° WNW 19:57:18 14° WNW
Cosmos 2333 Rocket 4.3 20:34:57 10° SW 20:36:39 20° WSW 20:36:39 20° WSW
Cosmos 2360 Rocket 4.0 20:37:36 10° WSW 20:40:53 27° W 20:40:53 27° W
Cosmos 2278 Rocket 4.4 20:41:45 10° NNW 20:43:19 19° NNW 20:43:19 19° NNW
Cosmos 2322 Rocket 4.3 20:48:55 10° W 20:52:29 22° NW 20:52:29 22° NW
